Flag for Gambia Weather past 2 weeks in Banjul, Gambia

Now
75 °F

Thunderstorms. Partly cloudy.


Feels Like: 74 °F
Forecast: 77 / 87 °F
Wind: 12 mph from Northeast

Location: Banjul / Yundum

Current Time: Sep 19, 2014 at 12:55:30 AM

Latest Report: Sep 19, 2014 at 12:00 AM


Visibility: 6 mi

Pressure: 29.89 "Hg

Humidity: 94%

Dew point: 73 °F

Location of BanjulLocation

Historic Weather in Banjul — Graph

°F

Banjul temperature yesterday

Maximum temperature yesterday: 90 °F (at 3:00 PM)
Minimum temperature yesterday: 73 °F (at 7:00 AM)
Average temperature yesterday: 80 °F

Past Weeks' High & Low Weather Summary

 TemperatureHumidityPressure
High90 °F (Sep 5, 2:00 PM)100% (Sep 4, 3:00 AM)29.98 "Hg (Sep 4, 3:00 AM)
Low72 °F (Sep 9, 8:00 PM)54% (Sep 11, 11:00 PM)29.77 "Hg (Sep 7, 3:00 PM)
Average81 °F86%29.87 "Hg
* Reported Sep 3 11:00 PM — Sep 18 11:00 PM, Banjul, Weather by CustomWeather, © 2014

Note: Actual official high and low records may vary slightly from our data, if they occured in-between our weather recording intervals... More about our weather records

Advertising

Banjul weather history for previous 24 hours

 ConditionsComfort  
Time TempWeatherWind HumidityBarometerVisibility
11:00 PM
Sep 18
73 °FThunderstorms. Passing clouds.12 mph100%29.89 "Hg6 mi
10:00 PM75 °FThunderstorms. Passing clouds.14 mph89%29.86 "Hg6 mi
9:00 PM77 °FThunderstorms. Partly cloudy.3 mph89%29.80 "HgN/A
8:00 PM79 °FThunderstorms. Partly cloudy.12 mph79%29.80 "HgN/A
7:00 PM86 °FScattered clouds.No wind75%29.77 "HgN/A
6:00 PM88 °FPartly sunny.9 mph70%29.77 "HgN/A
5:00 PM90 °FBroken clouds.6 mph63%29.77 "HgN/A
4:00 PM90 °FBroken clouds.8 mph67%29.80 "HgN/A
3:00 PM90 °FScattered clouds.12 mph67%29.83 "HgN/A
1:00 PM88 °FBroken clouds.5 mph70%29.86 "HgN/A
12:00 PM86 °FBroken clouds.12 mph75%29.89 "HgN/A
11:00 AM84 °FPartly sunny.6 mph74%29.89 "HgN/A
10:00 AM82 °FBroken clouds.10 mph84%29.86 "HgN/A
9:00 AM81 °FBroken clouds.9 mph89%29.86 "HgN/A
8:00 AM75 °FMild.50 mph100%29.86 "HgN/A
7:00 AM73 °FScattered clouds.No wind100%29.86 "Hg6 mi
6:00 AM75 °FPassing clouds.No wind94%29.86 "Hg6 mi
5:00 AM75 °FPassing clouds.No wind94%29.83 "HgN/A
4:00 AM75 °FPassing clouds.No wind94%29.83 "HgN/A
3:00 AM75 °FPassing clouds.No wind94%29.86 "HgN/A
2:00 AM75 °FPassing clouds.No wind94%29.86 "HgN/A
1:00 AM75 °FPassing clouds.No wind100%29.86 "HgN/A
12:00 AM77 °FPartly cloudy.No wind94%29.89 "HgN/A
Weather by CustomWeather, © 2014

See weather overviewHow to use our weather pages